Regional Weather Roundup
Issued by NWS Kansas City/Pleasant Hill, MO

Home | Current Version | Previous Version | Graphics & Text | Print | Product List | Glossary Off
Versions: 1 2 3 4 5 6 7 8 9 10 11 12 13 14 15 16 17 18 19 20 21 22 23 24 25 26 27 28 29 30 31 32 33 34 35 36 37 38 39 40 41 42 43 44 45 46 47 48 49 50

884
ASUS43 KEAX 182310
RWREAX

WEATHER ROUNDUP FOR EASTERN KANSAS AND NORTHWEST MISSOURI
NATIONAL WEATHER SERVICE KANSAS CITY/PLEASANT HILL MO
500 PM CST SAT FEB 18 2017

KSZ040-057-103>105-MOZ028-029-037-043-190000-
...KANSAS CITY METROPOLITAN AREA...

CITY           SKY/WX    TMP DP  RH WIND       PRES   REMARKS
K.C. INTL      MOSUNNY   71  41  33 CALM      29.77S
K.C. DOWNTOWN  SUNNY     71  43  36 CALM      29.76S
LEES SUMMIT    CLEAR     70  44  39 W5        29.78R
OLATHE - IXD   SUNNY     71  43  36 SW7       29.78R
OLATHE - OJC   SUNNY     69  44  40 S3        29.77S
LAWRENCE       SUNNY     72  44  36 E5        29.76S

$$

MOZ001>008-011>017-020>025-030>033-038>040-044>046-053-054-190000-
...NORTHERN AND CENTRAL MISSOURI...

CITY           SKY/WX    TMP DP  RH WIND       PRES   REMARKS
ST. JOSEPH     SUNNY     69  38  32 CALM      29.77S
WARRENSBURG    CLEAR     70  43  37 SW8       29.78R
WHITEMAN AFB   CLEAR     70  44  39 W7        29.77R
CLINTON        CLEAR     68  46  45 SW6       29.80R
SEDALIA        CLEAR     70  45  40 SW10      29.79R
WARSAW         NOT AVBL
CHILLICOTHE      N/A     70  38  31 SW3       29.78S
KIRKSVILLE     CLEAR     69  37  30 CALM      29.79R

$$

MOZ041-047>049-056>058-063>065-088>090-097-190000-
...EASTERN AND SOUTHERN MISSOURI...

CITY           SKY/WX    TMP DP  RH WIND       PRES   REMARKS
ST. LOUIS INTL CLOUDY    61  47  59 S9        29.81R
SPIRIT OF STL  CLOUDY    61  49  64 SW8       29.80R
COLUMBIA       CLEAR     69  45  41 W7        29.78S
JEFFERSON CITY CLEAR     70  44  39 W7        29.77S
ROLLA          CLEAR     62  48  60 S9        29.80S
OSAGE BEACH    CLEAR     69  45  41 W5        29.80S
SPRINGFIELD    CLEAR     65  48  54 SW6       29.81F
BRANSON        MOSUNNY   66  46  48 CALM      29.83S
JOPLIN         SUNNY     66  51  58 S7        29.82R
WEST PLAINS    PTCLDY    58  51  78 SE6       29.86R

$$

IAZ060-094-KSZ022-034>040-054-083-096-NEZ052-066-093-190000-
...KANSAS...SOUTHEAST NEBRASKA AND IOWA...

CITY           SKY/WX    TMP DP  RH WIND       PRES   REMARKS
TOPEKA         SUNNY     73  43  33 SE5       29.75S
MANHATTAN      SUNNY     73  43  33 VRB6      29.74S
EMPORIA        SUNNY     72  41  32 S9        29.76R
CHANUTE        SUNNY     68  50  52 S10       29.79S
WICHITA        MOSUNNY   71  42  35 S13       29.76R
OMAHA          PTSUNNY   65  32  29 E6        29.77S
LINCOLN        SUNNY     66  30  26 SE9       29.78R
FALLS CITY     SUNNY     68  34  28 SE5       29.77R
LAMONI         CLEAR     67  31  26 CALM      29.78S
DES MOINES     PTCLDY    66  31  27 CALM      29.79S

$$





USA.gov is the U.S. government's official web portal to all federal, state and local government web resources and services.